Location: Владивосток
(43.1151°N, 131.8856°E)
Time: 18:16:53
(UTC+10:00)

DUCHIFAT 1 - Pass Details

Date: 05 July 2022
Orbit: 580 x 596 km, 98.0° (Epoch: 17 August)

Event Time Altitude Azimuth Distance (km) Brightness Sun altitude
Rises 04:52:38 0° 358° (N) 2,847 ? -7.5°
Reaches altitude 10° 04:55:14 10° 342° (NNW) 1,942 ? -7.2°
Maximum altitude 04:58:19 20° 295° (WNW) 1,393 ? -6.8°
Drops below altitude 10° 05:01:24 10° 247° (WSW) 1,935 ? -6.3°
Enters shadow 05:02:06 - 241° (WSW) 2,156 ? -6.2°
